Year,Month,Day,Hour,Minute,Value (Times are PST for temperature in C)
2015,07,08,00,00,17.80
2015,07,08,00,01,17.80
2015,07,08,00,02,17.70
2015,07,08,00,03,17.70
2015,07,08,00,04,17.70
2015,07,08,00,05,17.60
2015,07,08,00,06,17.60
2015,07,08,00,07,17.50
2015,07,08,00,08,17.50
2015,07,08,00,09,17.40
2015,07,08,00,10,17.40
2015,07,08,00,11,17.40
2015,07,08,00,12,17.30
2015,07,08,00,13,17.30
2015,07,08,00,14,17.30
2015,07,08,00,15,17.20
2015,07,08,00,16,17.20
2015,07,08,00,17,17.20
2015,07,08,00,18,17.10
2015,07,08,00,19,17.10
2015,07,08,00,20,17.10
2015,07,08,00,21,17.10
2015,07,08,00,22,17.00
2015,07,08,00,23,17.00
2015,07,08,00,24,17.00
2015,07,08,00,25,16.90
2015,07,08,00,26,16.90
2015,07,08,00,27,16.90
2015,07,08,00,28,16.90
2015,07,08,00,29,16.90
2015,07,08,00,30,16.80
2015,07,08,00,31,16.80
2015,07,08,00,32,16.80
2015,07,08,00,33,16.80
2015,07,08,00,34,16.70
2015,07,08,00,35,16.70
2015,07,08,00,36,16.70
2015,07,08,00,37,16.70
2015,07,08,00,38,16.70
2015,07,08,00,39,16.60
2015,07,08,00,40,16.60
2015,07,08,00,41,16.60
2015,07,08,00,42,16.50
2015,07,08,00,43,16.50
2015,07,08,00,44,16.50
2015,07,08,00,45,16.50
2015,07,08,00,46,16.40
2015,07,08,00,47,16.40
2015,07,08,00,48,16.40
2015,07,08,00,49,16.40
2015,07,08,00,50,16.40
2015,07,08,00,51,16.40
2015,07,08,00,52,16.40
2015,07,08,00,53,16.30
2015,07,08,00,54,16.30
2015,07,08,00,55,16.30
2015,07,08,00,56,16.30
2015,07,08,00,57,16.30
2015,07,08,00,58,16.30
2015,07,08,00,59,16.30
2015,07,08,01,00,16.30
2015,07,08,01,01,16.30
2015,07,08,01,02,16.20
2015,07,08,01,03,16.20
2015,07,08,01,04,16.20
2015,07,08,01,05,16.20
2015,07,08,01,06,16.20
2015,07,08,01,07,16.20
2015,07,08,01,08,16.10
2015,07,08,01,09,16.10
2015,07,08,01,10,16.10
2015,07,08,01,11,16.10
2015,07,08,01,12,16.10
2015,07,08,01,13,16.10
2015,07,08,01,14,16.10
2015,07,08,01,15,16.10
2015,07,08,01,16,16.00
2015,07,08,01,17,16.00
2015,07,08,01,18,16.00
2015,07,08,01,19,15.90
2015,07,08,01,20,15.90
2015,07,08,01,21,15.90
2015,07,08,01,22,15.80
2015,07,08,01,23,15.80
2015,07,08,01,24,15.80
2015,07,08,01,25,15.70
2015,07,08,01,26,15.70
2015,07,08,01,27,15.70
2015,07,08,01,28,15.60
2015,07,08,01,29,15.60
2015,07,08,01,30,15.60
2015,07,08,01,31,15.50
2015,07,08,01,32,15.50
2015,07,08,01,33,15.50
2015,07,08,01,34,15.40
2015,07,08,01,35,15.40
2015,07,08,01,36,15.40
2015,07,08,01,37,15.40
2015,07,08,01,38,15.40
2015,07,08,01,39,15.30
2015,07,08,01,40,15.30
2015,07,08,01,41,15.30
2015,07,08,01,42,15.30
2015,07,08,01,43,15.30
2015,07,08,01,44,15.30
2015,07,08,01,45,15.30
2015,07,08,01,46,15.30
2015,07,08,01,47,15.30
2015,07,08,01,48,15.30
2015,07,08,01,49,15.20
2015,07,08,01,50,15.20
2015,07,08,01,51,15.20
2015,07,08,01,52,15.20
2015,07,08,01,53,15.20
2015,07,08,01,54,15.20
2015,07,08,01,55,15.20
2015,07,08,01,56,15.20
2015,07,08,01,57,15.10
2015,07,08,01,58,15.00
2015,07,08,01,59,15.00
2015,07,08,02,00,14.90
2015,07,08,02,01,14.90
2015,07,08,02,02,14.80
2015,07,08,02,03,14.80
2015,07,08,02,04,14.70
2015,07,08,02,05,14.60
2015,07,08,02,06,14.60
2015,07,08,02,07,14.50
2015,07,08,02,08,14.40
2015,07,08,02,09,14.40
2015,07,08,02,10,14.30
2015,07,08,02,11,14.30
2015,07,08,02,12,14.30
2015,07,08,02,13,14.20
2015,07,08,02,14,14.20
2015,07,08,02,15,14.10
2015,07,08,02,16,14.10
2015,07,08,02,17,14.10
2015,07,08,02,18,14.00
2015,07,08,02,19,14.00
2015,07,08,02,20,13.90
2015,07,08,02,21,13.90
2015,07,08,02,22,13.90
2015,07,08,02,23,13.80
2015,07,08,02,24,13.80
2015,07,08,02,25,13.80
2015,07,08,02,26,13.80
2015,07,08,02,27,13.70
2015,07,08,02,28,13.70
2015,07,08,02,29,13.70
2015,07,08,02,30,13.70
2015,07,08,02,31,13.70
2015,07,08,02,32,13.70
2015,07,08,02,33,13.60
2015,07,08,02,34,13.60
2015,07,08,02,35,13.60
2015,07,08,02,36,13.60
2015,07,08,02,37,13.60
2015,07,08,02,38,13.50
2015,07,08,02,39,13.50
2015,07,08,02,40,13.50
2015,07,08,02,41,13.40
2015,07,08,02,42,13.40
2015,07,08,02,43,13.40
2015,07,08,02,44,13.40
2015,07,08,02,45,13.40
2015,07,08,02,46,13.30
2015,07,08,02,47,13.30
2015,07,08,02,48,13.30
2015,07,08,02,49,13.30
2015,07,08,02,50,13.30
2015,07,08,02,51,13.30
2015,07,08,02,52,13.20
2015,07,08,02,53,13.20
2015,07,08,02,54,13.20
2015,07,08,02,55,13.20
2015,07,08,02,56,13.20
2015,07,08,02,57,13.20
2015,07,08,02,58,13.10
2015,07,08,02,59,13.10
2015,07,08,03,00,13.10
2015,07,08,03,01,13.10
2015,07,08,03,02,13.10
2015,07,08,03,03,13.10
2015,07,08,03,04,13.10
2015,07,08,03,05,13.10
2015,07,08,03,06,13.10
2015,07,08,03,07,13.10
2015,07,08,03,08,13.10
2015,07,08,03,09,13.00
2015,07,08,03,10,13.00
2015,07,08,03,11,13.00
2015,07,08,03,12,13.00
2015,07,08,03,13,13.00
2015,07,08,03,14,13.00
2015,07,08,03,15,13.00
2015,07,08,03,16,13.00
2015,07,08,03,17,13.00
2015,07,08,03,18,13.00
2015,07,08,03,19,13.00
2015,07,08,03,20,13.00
2015,07,08,03,21,13.00
2015,07,08,03,22,13.00
2015,07,08,03,23,13.00
2015,07,08,03,24,12.90
2015,07,08,03,25,12.90
2015,07,08,03,26,12.90
2015,07,08,03,27,12.90
2015,07,08,03,28,12.90
2015,07,08,03,29,12.90
2015,07,08,03,30,12.90
2015,07,08,03,31,12.90
2015,07,08,03,32,12.90
2015,07,08,03,33,12.90
2015,07,08,03,34,12.90
2015,07,08,03,35,12.90
2015,07,08,03,36,12.90
2015,07,08,03,37,12.90
2015,07,08,03,38,12.90
2015,07,08,03,39,12.90
2015,07,08,03,40,12.90
2015,07,08,03,41,12.90
2015,07,08,03,42,12.90
2015,07,08,03,43,12.90
2015,07,08,03,44,12.90
2015,07,08,03,45,12.90
2015,07,08,03,46,12.90
2015,07,08,03,47,12.90
2015,07,08,03,48,12.90
2015,07,08,03,49,12.90
2015,07,08,03,50,12.90
2015,07,08,03,51,12.90
2015,07,08,03,52,12.90
2015,07,08,03,53,12.90
2015,07,08,03,54,12.90
2015,07,08,03,55,12.90
2015,07,08,03,56,12.90
2015,07,08,03,57,13.00
2015,07,08,03,58,13.00
2015,07,08,03,59,12.90
2015,07,08,04,00,12.90
2015,07,08,04,01,13.00
2015,07,08,04,02,12.90
2015,07,08,04,03,13.00
2015,07,08,04,04,13.00
2015,07,08,04,05,13.00
2015,07,08,04,06,13.00
2015,07,08,04,07,12.90
2015,07,08,04,08,13.00
2015,07,08,04,09,13.00
2015,07,08,04,10,13.00
2015,07,08,04,11,13.00
2015,07,08,04,12,13.00
2015,07,08,04,13,13.00
2015,07,08,04,14,13.00
2015,07,08,04,15,13.00
2015,07,08,04,16,13.00
2015,07,08,04,17,13.00
2015,07,08,04,18,13.00
2015,07,08,04,19,13.00
2015,07,08,04,20,13.00
2015,07,08,04,21,13.00
2015,07,08,04,22,13.00
2015,07,08,04,23,13.00
2015,07,08,04,24,12.90
2015,07,08,04,25,13.00
2015,07,08,04,26,13.00
2015,07,08,04,27,13.00
2015,07,08,04,28,13.00
2015,07,08,04,29,13.00
2015,07,08,04,30,13.00
2015,07,08,04,31,13.00
2015,07,08,04,32,13.00
2015,07,08,04,33,13.00
2015,07,08,04,34,13.00
2015,07,08,04,35,13.00
2015,07,08,04,36,13.00
2015,07,08,04,37,13.00
2015,07,08,04,38,13.00
2015,07,08,04,39,13.00
2015,07,08,04,40,13.00
2015,07,08,04,41,13.00
2015,07,08,04,42,13.00
2015,07,08,04,43,13.00
2015,07,08,04,44,13.00
2015,07,08,04,45,13.00
2015,07,08,04,46,13.00
2015,07,08,04,47,13.00
2015,07,08,04,48,13.00
2015,07,08,04,49,13.00
2015,07,08,04,50,13.00
2015,07,08,04,51,13.00
2015,07,08,04,52,13.00
2015,07,08,04,53,13.00
2015,07,08,04,54,13.00
2015,07,08,04,55,13.00
2015,07,08,04,56,13.00
2015,07,08,04,57,13.00
2015,07,08,04,58,13.00
2015,07,08,04,59,13.00
2015,07,08,05,00,13.00
2015,07,08,05,01,13.00
2015,07,08,05,02,13.00
2015,07,08,05,03,13.00
2015,07,08,05,04,13.00
2015,07,08,05,05,13.00
2015,07,08,05,06,13.00
2015,07,08,05,07,13.00
2015,07,08,05,08,13.00
2015,07,08,05,09,13.00
2015,07,08,05,10,13.00
2015,07,08,05,11,13.00
2015,07,08,05,12,13.00
2015,07,08,05,13,12.90
2015,07,08,05,14,12.90
2015,07,08,05,15,12.90
2015,07,08,05,16,12.90
2015,07,08,05,17,12.90
2015,07,08,05,18,12.90
2015,07,08,05,19,12.90
2015,07,08,05,20,12.90
2015,07,08,05,21,12.90
2015,07,08,05,22,12.90
2015,07,08,05,23,12.90
2015,07,08,05,24,12.90
2015,07,08,05,25,12.90
2015,07,08,05,26,12.90
2015,07,08,05,27,12.90
2015,07,08,05,28,12.90
2015,07,08,05,29,12.90
2015,07,08,05,30,12.90
2015,07,08,05,31,12.90
2015,07,08,05,32,12.90
2015,07,08,05,33,12.90
2015,07,08,05,34,12.90
2015,07,08,05,35,12.80
2015,07,08,05,36,12.80
2015,07,08,05,37,12.80
2015,07,08,05,38,12.80
2015,07,08,05,39,12.80
2015,07,08,05,40,12.80
2015,07,08,05,41,12.80
2015,07,08,05,42,12.80
2015,07,08,05,43,12.80
2015,07,08,05,44,12.80
2015,07,08,05,45,12.80
2015,07,08,05,46,12.80
2015,07,08,05,47,12.80
2015,07,08,05,48,12.80
2015,07,08,05,49,12.80
2015,07,08,05,50,12.80
2015,07,08,05,51,12.80
2015,07,08,05,52,12.80
2015,07,08,05,53,12.80
2015,07,08,05,54,12.80
2015,07,08,05,55,12.80
2015,07,08,05,56,12.80
2015,07,08,05,57,12.80
2015,07,08,05,58,12.80
2015,07,08,05,59,12.80
2015,07,08,06,00,12.80
2015,07,08,06,01,12.80
2015,07,08,06,02,12.80
2015,07,08,06,03,12.80
2015,07,08,06,04,12.80
2015,07,08,06,05,12.80
2015,07,08,06,06,12.80
2015,07,08,06,07,12.80
2015,07,08,06,08,12.80
2015,07,08,06,09,12.80
2015,07,08,06,10,12.80
2015,07,08,06,11,12.80
2015,07,08,06,12,12.80
2015,07,08,06,13,12.80
2015,07,08,06,14,12.80
2015,07,08,06,15,12.80
2015,07,08,06,16,12.80
2015,07,08,06,17,12.90
2015,07,08,06,18,12.90
2015,07,08,06,19,12.90
2015,07,08,06,20,12.90
2015,07,08,06,21,12.90
2015,07,08,06,22,12.90
2015,07,08,06,23,12.90
2015,07,08,06,24,12.90
2015,07,08,06,25,12.90
2015,07,08,06,26,13.00
2015,07,08,06,27,13.00
2015,07,08,06,28,13.00
2015,07,08,06,29,13.00
2015,07,08,06,30,13.00
2015,07,08,06,31,13.10
2015,07,08,06,32,13.10
2015,07,08,06,33,13.10
2015,07,08,06,34,13.10
2015,07,08,06,35,13.10
2015,07,08,06,36,13.10
2015,07,08,06,37,13.10
2015,07,08,06,38,13.10
2015,07,08,06,39,13.10
2015,07,08,06,40,13.20
2015,07,08,06,41,13.20
2015,07,08,06,42,13.20
2015,07,08,06,43,13.20
2015,07,08,06,44,13.20
2015,07,08,06,45,13.20
2015,07,08,06,46,13.20
2015,07,08,06,47,13.30
2015,07,08,06,48,13.30
2015,07,08,06,49,13.30
2015,07,08,06,50,13.30
2015,07,08,06,51,13.30
2015,07,08,06,52,13.40
2015,07,08,06,53,13.40
2015,07,08,06,54,13.40
2015,07,08,06,55,13.40
2015,07,08,06,56,13.50
2015,07,08,06,57,13.50
2015,07,08,06,58,13.50
2015,07,08,06,59,13.50
2015,07,08,07,00,13.60
2015,07,08,07,01,13.60
2015,07,08,07,02,13.60
2015,07,08,07,03,13.60
2015,07,08,07,04,13.70
2015,07,08,07,05,13.70
2015,07,08,07,06,13.70
2015,07,08,07,07,13.70
2015,07,08,07,08,13.70
2015,07,08,07,09,13.80
2015,07,08,07,10,13.80
2015,07,08,07,11,13.90
2015,07,08,07,12,13.90
2015,07,08,07,13,13.90
2015,07,08,07,14,14.00
2015,07,08,07,15,14.00
2015,07,08,07,16,14.00
2015,07,08,07,17,14.10
2015,07,08,07,18,14.10
2015,07,08,07,19,14.20
2015,07,08,07,20,14.20
2015,07,08,07,21,14.20
2015,07,08,07,22,14.20
2015,07,08,07,23,14.30
2015,07,08,07,24,14.30
2015,07,08,07,25,14.30
2015,07,08,07,26,14.30
2015,07,08,07,27,14.40
2015,07,08,07,28,14.40
2015,07,08,07,29,14.40
2015,07,08,07,30,14.50
2015,07,08,07,31,14.50
2015,07,08,07,32,14.60
2015,07,08,07,33,14.60
2015,07,08,07,34,14.60
2015,07,08,07,35,14.60
2015,07,08,07,36,14.70
2015,07,08,07,37,14.70
2015,07,08,07,38,14.70
2015,07,08,07,39,14.70
2015,07,08,07,40,14.70
2015,07,08,07,41,14.80
2015,07,08,07,42,14.80
2015,07,08,07,43,14.80
2015,07,08,07,44,14.80
2015,07,08,07,45,14.90
2015,07,08,07,46,14.90
2015,07,08,07,47,14.90
2015,07,08,07,48,14.90
2015,07,08,07,49,14.90
2015,07,08,07,50,14.90
2015,07,08,07,51,15.00
2015,07,08,07,52,15.00
2015,07,08,07,53,15.00
2015,07,08,07,54,15.00
2015,07,08,07,55,15.00
2015,07,08,07,56,15.10
2015,07,08,07,57,15.10
2015,07,08,07,58,15.10
2015,07,08,07,59,15.20
2015,07,08,08,00,15.20
2015,07,08,08,01,15.20
2015,07,08,08,02,15.30
2015,07,08,08,03,15.30
2015,07,08,08,04,15.30
2015,07,08,08,05,15.40
2015,07,08,08,06,15.40
2015,07,08,08,07,15.40
2015,07,08,08,08,15.50
2015,07,08,08,09,15.50
2015,07,08,08,10,15.50
2015,07,08,08,11,15.60
2015,07,08,08,12,15.60
2015,07,08,08,13,15.60
2015,07,08,08,14,15.70
2015,07,08,08,15,15.70
2015,07,08,08,16,15.80
2015,07,08,08,17,15.80
2015,07,08,08,18,15.80
2015,07,08,08,19,15.90
2015,07,08,08,20,15.90
2015,07,08,08,21,15.90
2015,07,08,08,22,16.00
2015,07,08,08,23,16.00
2015,07,08,08,24,16.00
2015,07,08,08,25,16.00
2015,07,08,08,26,16.00
2015,07,08,08,27,16.00
2015,07,08,08,28,16.00
2015,07,08,08,29,16.00
2015,07,08,08,30,16.00
2015,07,08,08,31,16.00
2015,07,08,08,32,16.10
2015,07,08,08,33,16.10
2015,07,08,08,34,16.10
2015,07,08,08,35,16.20
2015,07,08,08,36,16.20
2015,07,08,08,37,16.20
2015,07,08,08,38,16.30
2015,07,08,08,39,16.30
2015,07,08,08,40,16.30
2015,07,08,08,41,16.30
2015,07,08,08,42,16.30
2015,07,08,08,43,16.40
2015,07,08,08,44,16.40
2015,07,08,08,45,16.40
2015,07,08,08,46,16.50
2015,07,08,08,47,16.50
2015,07,08,08,48,16.60
2015,07,08,08,49,16.60
2015,07,08,08,50,16.60
2015,07,08,08,51,16.70
2015,07,08,08,52,16.70
2015,07,08,08,53,16.70
2015,07,08,08,54,16.80
2015,07,08,08,55,16.80
2015,07,08,08,56,16.90
2015,07,08,08,57,17.00
2015,07,08,08,58,17.10
2015,07,08,08,59,17.10
2015,07,08,09,00,17.20
2015,07,08,09,01,17.30
2015,07,08,09,02,17.30
2015,07,08,09,03,17.40
2015,07,08,09,04,17.40
2015,07,08,09,05,17.50
2015,07,08,09,06,17.50
2015,07,08,09,07,17.60
2015,07,08,09,08,17.60
2015,07,08,09,09,17.60
2015,07,08,09,10,17.60
2015,07,08,09,11,17.60
2015,07,08,09,12,17.60
2015,07,08,09,13,17.60
2015,07,08,09,14,17.70
2015,07,08,09,15,17.70
2015,07,08,09,16,17.80
2015,07,08,09,17,17.80
2015,07,08,09,18,17.80
2015,07,08,09,19,17.80
2015,07,08,09,20,17.90
2015,07,08,09,21,17.90
2015,07,08,09,22,18.00
2015,07,08,09,23,18.00
2015,07,08,09,24,18.10
2015,07,08,09,25,18.20
2015,07,08,09,26,18.20
2015,07,08,09,27,18.20
2015,07,08,09,28,18.30
2015,07,08,09,29,18.40
2015,07,08,09,30,18.50
2015,07,08,09,31,18.60
2015,07,08,09,32,18.70
2015,07,08,09,33,18.80
2015,07,08,09,34,18.80
2015,07,08,09,35,18.90
2015,07,08,09,36,19.00
2015,07,08,09,37,19.10
2015,07,08,09,38,19.10
2015,07,08,09,39,19.10
2015,07,08,09,40,19.20
2015,07,08,09,41,19.20
2015,07,08,09,42,19.20
2015,07,08,09,43,19.30
2015,07,08,09,44,19.30
2015,07,08,09,45,19.20
2015,07,08,09,46,19.20
2015,07,08,09,47,19.20
2015,07,08,09,48,19.20
2015,07,08,09,49,19.20
2015,07,08,09,50,19.20
2015,07,08,09,51,19.20
2015,07,08,09,52,19.20
2015,07,08,09,53,19.20
2015,07,08,09,54,19.20
2015,07,08,09,55,19.20
2015,07,08,09,56,19.20
2015,07,08,09,57,19.10
2015,07,08,09,58,19.10
2015,07,08,09,59,19.10
2015,07,08,10,00,19.10
2015,07,08,10,01,19.10
2015,07,08,10,02,19.10
2015,07,08,10,03,19.00
2015,07,08,10,04,19.00
2015,07,08,10,05,19.00
2015,07,08,10,06,19.00
2015,07,08,10,07,19.10
2015,07,08,10,08,19.10
2015,07,08,10,09,19.10
2015,07,08,10,10,19.10
2015,07,08,10,11,19.20
2015,07,08,10,12,19.20
2015,07,08,10,13,19.20
2015,07,08,10,14,19.30
2015,07,08,10,15,19.30
2015,07,08,10,16,19.40
2015,07,08,10,17,19.40
2015,07,08,10,18,19.40
2015,07,08,10,19,19.50
2015,07,08,10,20,19.50
2015,07,08,10,21,19.50
2015,07,08,10,22,19.50
2015,07,08,10,23,19.50
2015,07,08,10,24,19.60
2015,07,08,10,25,19.60
2015,07,08,10,26,19.60
2015,07,08,10,27,19.60
2015,07,08,10,28,19.60
2015,07,08,10,29,19.60
2015,07,08,10,30,19.60
2015,07,08,10,31,19.60
2015,07,08,10,32,19.60
2015,07,08,10,33,19.50
2015,07,08,10,34,19.40
2015,07,08,10,35,19.30
2015,07,08,10,36,19.30
2015,07,08,10,37,19.30
2015,07,08,10,38,19.30
2015,07,08,10,39,19.20
2015,07,08,10,40,19.20
2015,07,08,10,41,19.20
2015,07,08,10,42,19.20
2015,07,08,10,43,19.20
2015,07,08,10,44,19.10
2015,07,08,10,45,19.10
2015,07,08,10,46,19.10
2015,07,08,10,47,19.00
2015,07,08,10,48,19.00
2015,07,08,10,49,19.00
2015,07,08,10,50,19.00
2015,07,08,10,51,18.90
2015,07,08,10,52,18.90
2015,07,08,10,53,18.90
2015,07,08,10,54,18.90
2015,07,08,10,55,18.90
2015,07,08,10,56,19.00
2015,07,08,10,57,19.00
2015,07,08,10,58,19.10
2015,07,08,10,59,19.10
2015,07,08,11,00,19.10
2015,07,08,11,01,19.20
2015,07,08,11,02,19.20
2015,07,08,11,03,19.20
2015,07,08,11,04,19.20
2015,07,08,11,05,19.20
2015,07,08,11,06,19.10
2015,07,08,11,07,19.10
2015,07,08,11,08,19.10
2015,07,08,11,09,19.10
2015,07,08,11,10,19.10
2015,07,08,11,11,19.10
2015,07,08,11,12,19.10
2015,07,08,11,13,19.20
2015,07,08,11,14,19.20
2015,07,08,11,15,19.20
2015,07,08,11,16,19.20
2015,07,08,11,17,19.30
2015,07,08,11,18,19.30
2015,07,08,11,19,19.30
2015,07,08,11,20,19.40
2015,07,08,11,21,19.50
2015,07,08,11,22,19.60
2015,07,08,11,23,19.70
2015,07,08,11,24,19.80
2015,07,08,11,25,19.80
2015,07,08,11,26,19.90
2015,07,08,11,27,20.00
2015,07,08,11,28,20.10
2015,07,08,11,29,20.20
2015,07,08,11,30,20.30
2015,07,08,11,31,20.40
2015,07,08,11,32,20.50
2015,07,08,11,33,20.60
2015,07,08,11,34,20.60
2015,07,08,11,35,20.70
2015,07,08,11,36,20.80
2015,07,08,11,37,20.80
2015,07,08,11,38,20.90
2015,07,08,11,39,20.90
2015,07,08,11,40,21.00
2015,07,08,11,41,21.00
2015,07,08,11,42,21.00
2015,07,08,11,43,21.10
2015,07,08,11,44,21.10
2015,07,08,11,45,21.00
2015,07,08,11,46,21.00
2015,07,08,11,47,21.10
2015,07,08,11,48,21.20
2015,07,08,11,49,21.20
2015,07,08,11,50,21.30
2015,07,08,11,51,21.40
2015,07,08,11,52,21.50
2015,07,08,11,53,21.50
2015,07,08,11,54,21.60
2015,07,08,11,55,21.70
2015,07,08,11,56,21.70
2015,07,08,11,57,21.70
2015,07,08,11,58,21.80
2015,07,08,11,59,21.80
2015,07,08,12,00,21.80
2015,07,08,12,01,21.80
2015,07,08,12,02,21.70
2015,07,08,12,03,21.70
2015,07,08,12,04,21.70
2015,07,08,12,05,21.70
2015,07,08,12,06,21.80
2015,07,08,12,07,21.80
2015,07,08,12,08,21.90
2015,07,08,12,09,21.90
2015,07,08,12,10,22.00
2015,07,08,12,11,22.10
2015,07,08,12,12,22.20
2015,07,08,12,13,22.20
2015,07,08,12,14,22.30
2015,07,08,12,15,22.40
2015,07,08,12,16,22.40
2015,07,08,12,17,22.50
2015,07,08,12,18,22.50
2015,07,08,12,19,22.60
2015,07,08,12,20,22.60
2015,07,08,12,21,22.70
2015,07,08,12,22,22.70
2015,07,08,12,23,22.70
2015,07,08,12,24,22.70
2015,07,08,12,25,22.70
2015,07,08,12,26,22.70
2015,07,08,12,27,22.70
2015,07,08,12,28,22.70
2015,07,08,12,29,22.70
2015,07,08,12,30,22.80
2015,07,08,12,31,22.80
2015,07,08,12,32,22.80
2015,07,08,12,33,22.80
2015,07,08,12,34,22.80
2015,07,08,12,35,22.80
2015,07,08,12,36,22.70
2015,07,08,12,37,22.60
2015,07,08,12,38,22.60
2015,07,08,12,39,22.50
2015,07,08,12,40,22.50
2015,07,08,12,41,22.50
2015,07,08,12,42,22.40
2015,07,08,12,43,22.40
2015,07,08,12,44,22.50
2015,07,08,12,45,22.50
2015,07,08,12,46,22.60
2015,07,08,12,47,22.60
2015,07,08,12,48,22.50
2015,07,08,12,49,22.50
2015,07,08,12,50,22.50
2015,07,08,12,51,22.50
2015,07,08,12,52,22.50
2015,07,08,12,53,22.40
2015,07,08,12,54,22.40
2015,07,08,12,55,22.40
2015,07,08,12,56,22.40
2015,07,08,12,57,22.40
2015,07,08,12,58,22.50
2015,07,08,12,59,22.50
2015,07,08,13,00,22.60
2015,07,08,13,01,22.60
2015,07,08,13,02,22.50
2015,07,08,13,03,22.50
2015,07,08,13,04,22.50
2015,07,08,13,05,22.50
2015,07,08,13,06,22.50
2015,07,08,13,07,22.60
2015,07,08,13,08,22.60
2015,07,08,13,09,22.60
2015,07,08,13,10,22.70
2015,07,08,13,11,22.70
2015,07,08,13,12,22.70
2015,07,08,13,13,22.70
2015,07,08,13,14,22.70
2015,07,08,13,15,22.80
2015,07,08,13,16,22.80
2015,07,08,13,17,22.80
2015,07,08,13,18,22.80
2015,07,08,13,19,22.80
2015,07,08,13,20,22.80
2015,07,08,13,21,22.80
2015,07,08,13,22,22.80
2015,07,08,13,23,22.90
2015,07,08,13,24,22.90
2015,07,08,13,25,22.90
2015,07,08,13,26,22.90
2015,07,08,13,27,22.90
2015,07,08,13,28,23.00
2015,07,08,13,29,23.10
2015,07,08,13,30,23.10
2015,07,08,13,31,23.20
2015,07,08,13,32,23.30
2015,07,08,13,33,23.40
2015,07,08,13,34,23.50
2015,07,08,13,35,23.60
2015,07,08,13,36,23.70
2015,07,08,13,37,23.70
2015,07,08,13,38,23.80
2015,07,08,13,39,23.90
2015,07,08,13,40,23.90
2015,07,08,13,41,24.00
2015,07,08,13,42,24.00
2015,07,08,13,43,24.10
2015,07,08,13,44,24.10
2015,07,08,13,45,24.20
2015,07,08,13,46,24.20
2015,07,08,13,47,24.30
2015,07,08,13,48,24.30
2015,07,08,13,49,24.40
2015,07,08,13,50,24.40
2015,07,08,13,51,24.50
2015,07,08,13,52,24.60
2015,07,08,13,53,24.60
2015,07,08,13,54,24.70
2015,07,08,13,55,24.80
2015,07,08,13,56,24.80
2015,07,08,13,57,24.90
2015,07,08,13,58,24.90
2015,07,08,13,59,24.90
2015,07,08,14,00,25.00
2015,07,08,14,01,25.00
2015,07,08,14,02,25.10
2015,07,08,14,03,25.10
2015,07,08,14,04,25.10
2015,07,08,14,05,25.00
2015,07,08,14,06,25.00
2015,07,08,14,07,25.00
2015,07,08,14,08,25.00
2015,07,08,14,09,24.90
2015,07,08,14,10,24.90
2015,07,08,14,11,24.90
2015,07,08,14,12,24.90
2015,07,08,14,13,24.90
2015,07,08,14,14,24.90
2015,07,08,14,15,24.90
2015,07,08,14,16,25.00
2015,07,08,14,17,25.00
2015,07,08,14,18,25.00
2015,07,08,14,19,24.90
2015,07,08,14,20,25.00
2015,07,08,14,21,25.00
2015,07,08,14,22,25.00
2015,07,08,14,23,25.10
2015,07,08,14,24,25.10
2015,07,08,14,25,25.10
2015,07,08,14,26,25.00
2015,07,08,14,27,25.10
2015,07,08,14,28,25.10
2015,07,08,14,29,25.10
2015,07,08,14,30,25.10
2015,07,08,14,31,25.10
2015,07,08,14,32,25.20
2015,07,08,14,33,25.20
2015,07,08,14,34,25.20
2015,07,08,14,35,25.20
2015,07,08,14,36,25.20
2015,07,08,14,37,25.20
2015,07,08,14,38,25.20
2015,07,08,14,39,25.20
2015,07,08,14,40,25.20
2015,07,08,14,41,25.20
2015,07,08,14,42,25.20
2015,07,08,14,43,25.20
2015,07,08,14,44,25.20
2015,07,08,14,45,25.20
2015,07,08,14,46,25.20
2015,07,08,14,47,25.20
2015,07,08,14,48,25.20
2015,07,08,14,49,25.10
2015,07,08,14,50,25.10
2015,07,08,14,51,25.10
2015,07,08,14,52,25.20
2015,07,08,14,53,25.20
2015,07,08,14,54,25.20
2015,07,08,14,55,25.20
2015,07,08,14,56,25.20
2015,07,08,14,57,25.20
2015,07,08,14,58,25.10
2015,07,08,14,59,25.10
2015,07,08,15,00,25.10
2015,07,08,15,01,25.10
2015,07,08,15,02,25.10
2015,07,08,15,03,25.10
2015,07,08,15,04,25.20
2015,07,08,15,05,25.20
2015,07,08,15,06,25.20
2015,07,08,15,07,25.20
2015,07,08,15,08,25.20
2015,07,08,15,09,25.20
2015,07,08,15,10,25.20
2015,07,08,15,11,25.30
2015,07,08,15,12,25.30
2015,07,08,15,13,25.30
2015,07,08,15,14,25.30
2015,07,08,15,15,25.30
2015,07,08,15,16,25.30
2015,07,08,15,17,25.30
2015,07,08,15,18,25.30
2015,07,08,15,19,25.30
2015,07,08,15,20,25.30
2015,07,08,15,21,25.30
2015,07,08,15,22,25.30
2015,07,08,15,23,25.30
2015,07,08,15,24,25.30
2015,07,08,15,25,25.30
2015,07,08,15,26,25.30
2015,07,08,15,27,25.30
2015,07,08,15,28,25.40
2015,07,08,15,29,25.40
2015,07,08,15,30,25.40
2015,07,08,15,31,25.40
2015,07,08,15,32,25.40
2015,07,08,15,33,25.40
2015,07,08,15,34,25.40
2015,07,08,15,35,25.40
2015,07,08,15,36,25.50
2015,07,08,15,37,25.50
2015,07,08,15,38,25.50
2015,07,08,15,39,25.60
2015,07,08,15,40,25.60
2015,07,08,15,41,25.70
2015,07,08,15,42,25.70
2015,07,08,15,43,25.70
2015,07,08,15,44,25.70
2015,07,08,15,45,25.60
2015,07,08,15,46,25.60
2015,07,08,15,47,25.60
2015,07,08,15,48,25.60
2015,07,08,15,49,25.60
2015,07,08,15,50,25.60
2015,07,08,15,51,25.60
2015,07,08,15,52,25.60
2015,07,08,15,53,25.60
2015,07,08,15,54,25.60
2015,07,08,15,55,25.60
2015,07,08,15,56,25.60
2015,07,08,15,57,25.60
2015,07,08,15,58,25.50
2015,07,08,15,59,25.50
2015,07,08,16,00,25.50
2015,07,08,16,01,25.60
2015,07,08,16,02,25.60
2015,07,08,16,03,25.60
2015,07,08,16,04,25.70
2015,07,08,16,05,25.70
2015,07,08,16,06,25.70
2015,07,08,16,07,25.70
2015,07,08,16,08,25.70
2015,07,08,16,09,25.70
2015,07,08,16,10,25.70
2015,07,08,16,11,25.70
2015,07,08,16,12,25.70
2015,07,08,16,13,25.70
2015,07,08,16,14,25.70
2015,07,08,16,15,25.70
2015,07,08,16,16,25.80
2015,07,08,16,17,25.80
2015,07,08,16,18,25.80
2015,07,08,16,19,25.80
2015,07,08,16,20,25.80
2015,07,08,16,21,25.90
2015,07,08,16,22,25.90
2015,07,08,16,23,26.00
2015,07,08,16,24,26.00
2015,07,08,16,25,26.10
2015,07,08,16,26,26.10
2015,07,08,16,27,26.20
2015,07,08,16,28,26.20
2015,07,08,16,29,26.20
2015,07,08,16,30,26.20
2015,07,08,16,31,26.20
2015,07,08,16,32,26.20
2015,07,08,16,33,26.20
2015,07,08,16,34,26.20
2015,07,08,16,35,26.20
2015,07,08,16,36,26.20
2015,07,08,16,37,26.20
2015,07,08,16,38,26.30
2015,07,08,16,39,26.30
2015,07,08,16,40,26.30
2015,07,08,16,41,26.20
2015,07,08,16,42,26.20
2015,07,08,16,43,26.20
2015,07,08,16,44,26.20
2015,07,08,16,45,26.20
2015,07,08,16,46,26.20
2015,07,08,16,47,26.20
2015,07,08,16,48,26.30
2015,07,08,16,49,26.30
2015,07,08,16,50,26.30
2015,07,08,16,51,26.30
2015,07,08,16,52,26.30
2015,07,08,16,53,26.20
2015,07,08,16,54,26.20
2015,07,08,16,55,26.20
2015,07,08,16,56,26.20
2015,07,08,16,57,26.20
2015,07,08,16,58,26.20
2015,07,08,16,59,26.20
2015,07,08,17,00,26.20
2015,07,08,17,01,26.20
2015,07,08,17,02,26.20
2015,07,08,17,03,26.20
2015,07,08,17,04,26.20
2015,07,08,17,05,26.20
2015,07,08,17,06,26.20
2015,07,08,17,07,26.20
2015,07,08,17,08,26.20
2015,07,08,17,09,26.20
2015,07,08,17,10,26.20
2015,07,08,17,11,26.30
2015,07,08,17,12,26.30
2015,07,08,17,13,26.30
2015,07,08,17,14,26.30
2015,07,08,17,15,26.30
2015,07,08,17,16,26.30
2015,07,08,17,17,26.30
2015,07,08,17,18,26.30
2015,07,08,17,19,26.30